Panama City, FL

6:52 PM CDT on March 27, 2017 (GMT -0500)
Northwest Florida Beaches International

Weather History for KECP - August, 2013

Change the Weather History Date:

Monday, August 26, 2013

  Actual Average Record
Temperature  
Mean Temperature 80 °F -  
Max Temperature 89 °F - 99 °F (2011)
Min Temperature 70 °F - 64 °F (2015)
Degree Days  
Heating Degree Days 0    
Cooling Degree Days 15    
Growing Degree Days 30 (Base 50)    
Moisture  
Dew Point 70 °F    
Average Humidity 72    
Maximum Humidity 94    
Minimum Humidity 50    
Precipitation  
Precipitation 0.00 in - 0.69 in (2010)
Month to date precipitation  
Year to date precipitation  
Sea Level Pressure  
Sea Level Pressure 30.18 in    
Wind  
Wind Speed 5 mph (NNE)    
Max Wind Speed 0 mph    
Max Gust Speed 0 mph    
Visibility 10 miles    
Events      
T = Trace of Precipitation, MM = Missing Value Source: NWS Daily Summary

Daily Weather History Graph

Daily Weather History Graph

Search for Another Location

Airport or City:

Trip Planner

Search our weather history database for the weather conditions in past years. The results will help you decide how hot, cold, wet, or windy it might be!

Date:

Astronomy

Aug. 26, 2013 Rise Set
Actual Time 7:16 AM EDT 8:12 PM EDT
Civil Twilight 6:51 AM EDT 8:37 PM EDT
Nautical Twilight 6:22 AM EDT 9:06 PM EDT
Astronomical Twilight 5:52 AM EDT 9:36 PM EDT
Moon 11:52 PM EDT (8/26) 12:48 PM EDT (8/26)
Length of Visible Light 13h 45m
Length of Day
12h 55m
Waning Gibbous, 67% of the Moon is Illuminated
Aug 26
Waning Gibbous
Aug 28
Last Quarter
Sep 5
New
Sep 12
First Quarter
Sep 19
Full

Hourly Weather History & Observations

Time (EDT) Temp. Heat Index Dew Point Humidity Pressure Visibility Wind Dir Wind Speed Gust Speed Precip Events Conditions
12:53 AM 75.9 °F - 73.9 °F 94% 30.22 in 10.0 mi Calm Calm - N/A   Overcast
1:53 AM 75.0 °F - 73.9 °F 96% 30.22 in 10.0 mi Calm Calm - N/A   Mostly Cloudy
2:53 AM 75.0 °F - 73.0 °F 94% 30.21 in 10.0 mi NNE 3.5 mph - N/A   Overcast
3:53 AM 75.0 °F - 72.0 °F 90% 30.20 in 10.0 mi NE 5.8 mph - N/A   Mostly Cloudy
4:53 AM 73.0 °F - 71.1 °F 93% 30.19 in 10.0 mi NNE 5.8 mph - N/A   Clear
5:53 AM 72.0 °F - 70.0 °F 93% 30.19 in 10.0 mi NE 5.8 mph - N/A   Clear
6:53 AM 71.1 °F - 68.0 °F 90% 30.19 in 10.0 mi NE 6.9 mph - N/A   Clear
7:53 AM 71.1 °F - 68.0 °F 90% 30.20 in 10.0 mi NE 6.9 mph - N/A   Clear
8:53 AM 75.0 °F - 68.0 °F 79% 30.21 in 10.0 mi NE 9.2 mph - N/A   Clear
9:53 AM 78.1 °F - 68.0 °F 71% 30.22 in 10.0 mi NE 10.4 mph - N/A   Clear
10:53 AM 81.0 °F 84.1 °F 69.1 °F 67% 30.22 in 10.0 mi NE 9.2 mph 18.4 mph N/A   Clear
11:53 AM 82.9 °F 86.5 °F 69.1 °F 63% 30.23 in 10.0 mi NNE 12.7 mph - N/A   Partly Cloudy
12:53 PM 84.9 °F 88.2 °F 68.0 °F 57% 30.21 in 10.0 mi NE 8.1 mph - N/A   Partly Cloudy
1:53 PM 87.1 °F 89.2 °F 66.0 °F 49% 30.20 in 10.0 mi NNE 9.2 mph - N/A   Partly Cloudy
2:53 PM 87.1 °F 89.9 °F 66.9 °F 51% 30.18 in 10.0 mi East 12.7 mph 33.4 mph N/A   Mostly Cloudy
3:53 PM 87.1 °F 89.2 °F 66.0 °F 49% 30.15 in 10.0 mi ENE 5.8 mph - N/A   Mostly Cloudy
4:53 PM 89.1 °F 92.9 °F 68.0 °F 50% 30.14 in 10.0 mi North 6.9 mph - N/A   Mostly Cloudy
5:53 PM 86.0 °F 89.4 °F 68.0 °F 55% 30.13 in 10.0 mi NNE 6.9 mph - N/A   Partly Cloudy
6:53 PM 84.0 °F 87.8 °F 69.1 °F 61% 30.13 in 10.0 mi North 4.6 mph - N/A   Partly Cloudy
7:53 PM 81.0 °F 85.2 °F 72.0 °F 74% 30.12 in 10.0 mi North 4.6 mph - N/A   Clear
8:53 PM 77.0 °F - 72.0 °F 84% 30.13 in 10.0 mi North 4.6 mph - N/A   Clear
9:53 PM 75.0 °F - 72.0 °F 90% 30.14 in 10.0 mi North 4.6 mph - N/A   Clear
10:53 PM 73.9 °F - 72.0 °F 93% 30.16 in 10.0 mi North 3.5 mph - N/A   Scattered Clouds
11:53 PM 73.9 °F - 71.1 °F 91% 30.16 in 10.0 mi NNE 4.6 mph - N/A   Scattered Clouds